SCP
0 0 0 0 0 0 0 0 0 0 0 0 0 0 0 0 0 0 0 0 0 0
0 0 0 0 0 0 0 0 0 0 0 0 0 0 0 0 0 0 0 0 0 0
0 0 0 0 0 0 0 0 0 0 0 0 0 0 0 0 0 0 0 0 0 0
0 0 0 0 0 0 0 0 0 0 0 0 0 0 0 0 0 0 0 0 0 0
0 0 0 0 0 0 0 0 0 0 0 0 0 0 0 0 -0 0 0 0 0 0
0 0 0 0 0 0 0 0 0 0 0 -0 0 0 -0 -0 -0 -0 0 0 0 0
0 0 0 0 0 0 0 0 0 0 0 0 0 0 -0 -0 -0 -0 -0 0 0 0
0 0 0 0 0 0 0 0 0 0 0 0 0 0 -0 -0 -0 -0 -0 -0 -0 -0
0 0 0 0 0 0 0 0 0 0 0 0 0 0 0 0 -0 -0 -0 -0 -0 -0
0 0 0 0 0 0 0 0 0 0 0 0 0 0 0 0 0 -0 -0 -0 0 0
0 0 0 0 0 0 0 0 0 0 0 0 0 0 0 0 0 0 0 -0 -0 -0
0 0 0 0 0 0 0 0 0 0 0 0 0 0 0 0 0 0 0 0 0 -0
0 0 0 0 0 0 0 0 0 0 0 0 0 0 0 0 0 0 0 0 0 0
0 0 0 0 0 0 0 0 0 0 0 0 0 0 0 0 0 0 0 0 0 0
Wind_Speed_500mb
42 44 48 47 49 44 47 43 41 38 37 36 32 30 29 26 23 20 15 12 9 6
49 50 51 53 46 47 47 45 42 35 33 30 34 32 29 30 26 22 20 16 11 7
47 48 49 50 55 52 50 48 43 38 30 29 28 29 29 33 34 30 25 18 11 9
46 47 44 50 53 56 56 49 42 37 28 27 30 37 36 40 38 39 35 29 21 15
47 46 48 51 51 53 60 69 67 56 37 28 29 32 37 39 46 42 49 46 37 29
46 46 45 45 44 48 52 56 58 58 53 43 37 37 36 36 37 40 39 44 44 40
52 49 47 42 38 41 43 45 50 50 53 51 45 41 40 39 36 35 35 35 34 35
44 46 48 48 40 35 40 41 41 44 40 39 36 34 34 38 36 33 31 30 30 31
42 50 47 45 46 35 43 43 40 42 38 38 44 49 36 40 41 37 32 31 28 25
40 42 44 41 41 45 49 49 49 47 49 48 39 37 35 39 38 41 39 35 31 28
47 52 49 43 36 38 39 42 52 52 49 50 47 38 37 32 29 36 36 33 33 32
41 44 44 43 48 41 39 46 44 52 58 56 52 49 45 33 39 39 31 32 35 30
35 41 39 34 44 50 46 48 49 47 50 51 49 47 46 38 33 41 42 33 30 33
30 37 38 34 35 37 39 41 46 46 46 47 49 47 43 47 45 36 34 42 33 29
Wind_Direction_500mb
23 23 17 8 7 3 5 8 13 14 13 17 21 27 14 20 28 29 33 30 353 336
20 20 11 9 19 22 19 14 14 16 18 16 25 26 30 35 35 34 41 42 27 360
20 20 22 27 28 22 18 14 12 15 16 21 29 28 31 35 35 32 36 33 28 36
30 29 28 29 23 22 18 11 12 11 21 27 34 39 40 34 32 38 40 37 35 36
37 33 29 26 31 29 27 38 36 37 38 35 32 27 37 34 37 41 42 39 35 36
36 35 32 31 31 31 36 36 37 39 40 40 39 48 48 41 38 39 38 34 32 30
42 39 36 31 30 34 36 41 40 40 46 47 53 55 49 42 38 40 40 36 35 29
32 29 29 31 35 42 35 37 42 41 41 48 51 47 45 44 34 29 28 37 38 36
41 38 35 38 37 48 41 42 46 43 37 36 37 41 41 35 34 33 33 33 36 37
31 32 39 48 41 57 50 52 47 42 41 38 35 32 47 45 39 42 41 38 40 40
47 47 48 42 42 57 44 33 47 45 39 41 42 37 41 33 41 37 34 38 35 39
42 43 41 39 38 42 59 54 44 55 47 47 45 41 37 37 41 37 35 38 40 40
43 38 43 47 50 52 67 61 54 48 47 43 42 46 42 40 37 35 41 45 41 46
50 46 49 51 52 59 65 60 54 47 42 43 39 35 32 39 38 39 39 40 38 49
Wind_Speed_850mb
42 44 48 47 49 44 47 43 41 38 37 36 32 30 29 26 23 20 15 12 9 6
49 50 51 53 46 47 47 45 42 35 33 30 34 32 29 30 26 22 20 16 11 7
47 48 49 50 55 52 50 48 43 38 30 29 28 29 29 33 34 30 25 18 11 9
46 47 44 50 53 56 56 49 42 37 28 27 30 37 36 40 38 39 35 29 21 15
47 46 48 51 51 53 60 69 67 56 37 28 29 32 37 39 46 42 49 46 37 29
46 46 45 45 44 48 52 56 58 58 53 43 37 37 36 36 37 40 39 44 44 40
52 49 47 42 38 41 43 45 50 50 53 51 45 41 40 39 36 35 35 35 34 35
44 46 48 48 40 35 40 41 41 44 40 39 36 34 34 38 36 33 31 30 30 31
42 50 47 45 46 35 43 43 40 42 38 38 44 49 36 40 41 37 32 31 28 25
40 42 44 41 41 45 49 49 49 47 49 48 39 37 35 39 38 41 39 35 31 28
47 52 49 43 36 38 39 42 52 52 49 50 47 38 37 32 29 36 36 33 33 32
41 44 44 43 48 41 39 46 44 52 58 56 52 49 45 33 39 39 31 32 35 30
35 41 39 34 44 50 46 48 49 47 50 51 49 47 46 38 33 41 42 33 30 33
30 37 38 34 35 37 39 41 46 46 46 47 49 47 43 47 45 36 34 42 33 29
Wind_Direction_850mb
23 23 17 8 7 3 5 8 13 14 13 17 21 27 14 20 28 29 33 30 353 336
20 20 11 9 19 22 19 14 14 16 18 16 25 26 30 35 35 34 41 42 27 360
20 20 22 27 28 22 18 14 12 15 16 21 29 28 31 35 35 32 36 33 28 36
30 29 28 29 23 22 18 11 12 11 21 27 34 39 40 34 32 38 40 37 35 36
37 33 29 26 31 29 27 38 36 37 38 35 32 27 37 34 37 41 42 39 35 36
36 35 32 31 31 31 36 36 37 39 40 40 39 48 48 41 38 39 38 34 32 30
42 39 36 31 30 34 36 41 40 40 46 47 53 55 49 42 38 40 40 36 35 29
32 29 29 31 35 42 35 37 42 41 41 48 51 47 45 44 34 29 28 37 38 36
41 38 35 38 37 48 41 42 46 43 37 36 37 41 41 35 34 33 33 33 36 37
31 32 39 48 41 57 50 52 47 42 41 38 35 32 47 45 39 42 41 38 40 40
47 47 48 42 42 57 44 33 47 45 39 41 42 37 41 33 41 37 34 38 35 39
42 43 41 39 38 42 59 54 44 55 47 47 45 41 37 37 41 37 35 38 40 40
43 38 43 47 50 52 67 61 54 48 47 43 42 46 42 40 37 35 41 45 41 46
50 46 49 51 52 59 65 60 54 47 42 43 39 35 32 39 38 39 39 40 38 49